,,,PA_Meas_PMT16A,,PR_Meas_QMR101_102,,RH_Meas_QMH101,,SR_Meas_QMS101,,TA_Meas_QMH101,,GenWind,,GenWind,
date,time,status,PA,status,PR,status,RH,status,SR,status,TA,status,DirAvg,status,SpdAvg,
2009-05-26, 00:00:04,VALID,1003.84,VALID,0,VALID,92.2255,VALID,0,VALID,24.6945,VALID,29,VALID,0.338281,
2009-05-26, 00:01:04,VALID,1003.84,VALID,0,VALID,91.9967,VALID,0,VALID,24.7335,VALID,29,VALID,0.414453,
2009-05-26, 00:02:04,VALID,1003.88,VALID,0,VALID,91.7983,VALID,0,VALID,24.8132,VALID,34,VALID,0.8125,
2009-05-26, 00:03:04,VALID,1003.84,VALID,0,VALID,91.5313,VALID,0,VALID,24.8503,VALID,37,VALID,0.446094,
2009-05-26, 00:04:04,VALID,1003.84,VALID,0,VALID,91.1651,VALID,0,VALID,24.93,VALID,39,VALID,0.390625,
2009-05-26, 00:05:04,VALID,1003.86,VALID,0,VALID,90.8676,VALID,0,VALID,24.9495,VALID,39,VALID,0.323047,
2009-05-26, 00:06:04,VALID,1003.84,VALID,0,VALID,90.6616,VALID,0,VALID,24.9495,VALID,39,VALID,0.268359,
2009-05-26, 00:07:04,VALID,1003.85,VALID,0,VALID,90.5853,VALID,0,VALID,24.9495,VALID,39,VALID,0,
2009-05-26, 00:08:04,VALID,1003.85,VALID,0,VALID,90.509,VALID,0,VALID,24.9087,VALID,39,VALID,0.199219,
2009-05-26, 00:09:04,VALID,1003.87,VALID,0,VALID,90.5243,VALID,0,VALID,24.9282,VALID,39,VALID,0.4,
2009-05-26, 00:10:04,VALID,1003.84,VALID,0,VALID,90.4862,VALID,0,VALID,24.9495,VALID,39,VALID,0.190625,
2009-05-26, 00:11:04,VALID,1003.83,VALID,0,VALID,90.4633,VALID,0,VALID,24.9087,VALID,39,VALID,0,
2009-05-26, 00:12:04,VALID,1003.82,VALID,0,VALID,90.5701,VALID,0,VALID,24.8911,VALID,51,VALID,0.471094,
2009-05-26, 00:13:04,VALID,1003.84,VALID,0,VALID,90.5548,VALID,0,VALID,24.8911,VALID,50,VALID,0.145703,
2009-05-26, 00:14:04,VALID,1003.79,VALID,0,VALID,90.776,VALID,0,VALID,24.8716,VALID,27,VALID,0.639063,
2009-05-26, 00:15:04,VALID,1003.79,VALID,0,VALID,90.654,VALID,0,VALID,24.8911,VALID,27,VALID,0.632422,
2009-05-26, 00:16:04,VALID,1003.78,VALID,0,VALID,90.7226,VALID,0,VALID,24.8716,VALID,27,VALID,0.511719,
2009-05-26, 00:17:04,VALID,1003.76,VALID,0,VALID,90.8829,VALID,0,VALID,24.8892,VALID,29,VALID,0.711719,
2009-05-26, 00:18:04,VALID,1003.78,VALID,0,VALID,90.8981,VALID,0,VALID,24.9495,VALID,11,VALID,0.9375,
2009-05-26, 00:19:04,VALID,1003.8,VALID,0,VALID,90.8371,VALID,0,VALID,24.9671,VALID,27,VALID,0.864062,
2009-05-26, 00:20:04,VALID,1003.81,VALID,0,VALID,90.6616,VALID,0,VALID,25.0858,VALID,57,VALID,0.475391,
2009-05-26, 00:21:04,VALID,1003.81,VALID,0,VALID,90.4862,VALID,0,VALID,25.1034,VALID,32,VALID,0.615625,
2009-05-26, 00:22:04,VALID,1003.82,VALID,0,VALID,90.4785,VALID,0,VALID,25.1832,VALID,26,VALID,0.630078,
2009-05-26, 00:23:04,VALID,1003.86,VALID,0,VALID,90.1886,VALID,0,VALID,25.2007,VALID,26,VALID,0.211328,
2009-05-26, 00:24:04,VALID,1003.83,VALID,0,VALID,90.0894,VALID,0,VALID,25.2416,VALID,49,VALID,0.449609,
2009-05-26, 00:25:04,VALID,1003.83,VALID,0,VALID,90.2497,VALID,0,VALID,25.2786,VALID,34,VALID,0.84375,
2009-05-26, 00:26:04,VALID,1003.82,VALID,0,VALID,90.448,VALID,0,VALID,25.3974,VALID,359,VALID,1.15664,
2009-05-26, 00:27:04,VALID,1003.79,VALID,0,VALID,90.1734,VALID,0,VALID,25.4928,VALID,358,VALID,1.16094,
2009-05-26, 00:28:04,VALID,1003.78,VALID,0,VALID,89.4868,VALID,0,VALID,25.5707,VALID,36,VALID,0.691406,
2009-05-26, 00:29:04,VALID,1003.78,VALID,0,VALID,89.38,VALID,0,VALID,25.5902,VALID,31,VALID,0.492969,
2009-05-26, 00:30:04,VALID,1003.73,VALID,0,VALID,89.0824,VALID,0,VALID,25.6097,VALID,31,VALID,0.222266,
2009-05-26, 00:31:04,VALID,1003.76,VALID,0,VALID,88.8459,VALID,0,VALID,25.5902,VALID,31,VALID,0.108203,
2009-05-26, 00:32:04,VALID,1003.75,VALID,0,VALID,89.0214,VALID,0,VALID,25.5513,VALID,31,VALID,0.328516,
2009-05-26, 00:33:04,VALID,1003.73,VALID,0,VALID,89.38,VALID,0.100563,VALID,25.5513,VALID,346,VALID,0.529297,
2009-05-26, 00:34:04,VALID,1003.72,VALID,0,VALID,89.3723,VALID,0.100563,VALID,25.5707,VALID,341,VALID,0.277734,
2009-05-26, 00:35:04,VALID,1003.72,VALID,0,VALID,89.4639,VALID,0,VALID,25.5513,VALID,341,VALID,0.39375,
2009-05-26, 00:36:04,VALID,1003.7,VALID,0,VALID,89.1587,VALID,0.100563,VALID,25.5318,VALID,315,VALID,0.178516,
2009-05-26, 00:37:04,VALID,1003.66,VALID,0,VALID,89.0214,VALID,0,VALID,25.4734,VALID,315,VALID,0.0746094,
2009-05-26, 00:38:04,VALID,1003.65,VALID,0,VALID,88.9451,VALID,0,VALID,25.413,VALID,332,VALID,0.469531,
2009-05-26, 00:39:04,VALID,1003.62,VALID,0,VALID,88.9604,VALID,0.100563,VALID,25.376,VALID,341,VALID,0.399609,
2009-05-26, 00:40:04,VALID,1003.62,VALID,0,VALID,88.9909,VALID,0.100563,VALID,25.3176,VALID,4,VALID,0.708594,
2009-05-26, 00:41:04,VALID,1003.6,VALID,0,VALID,89.1053,VALID,0.100563,VALID,25.2572,VALID,355,VALID,0.500781,
2009-05-26, 00:42:04,VALID,1003.59,VALID,0,VALID,89.3266,VALID,0,VALID,25.2221,VALID,346,VALID,0.698438,
2009-05-26, 00:43:04,VALID,1003.55,VALID,0,VALID,89.502,VALID,0,VALID,25.1832,VALID,354,VALID,0.804688,
2009-05-26, 00:44:04,VALID,1003.56,VALID,0,VALID,89.6699,VALID,0,VALID,25.1442,VALID,319,VALID,0.478516,
2009-05-26, 00:45:04,VALID,1003.56,VALID,0,VALID,89.7996,VALID,0,VALID,25.1053,VALID,344,VALID,0.405078,
2009-05-26, 00:46:04,VALID,1003.53,VALID,0,VALID,89.9292,VALID,0,VALID,25.0663,VALID,344,VALID,0.522656,
2009-05-26, 00:47:04,VALID,1003.5,VALID,0,VALID,90.1657,VALID,0,VALID,25.0488,VALID,344,VALID,0.484375,
2009-05-26, 00:48:04,VALID,1003.5,VALID,0,VALID,90.2725,VALID,0,VALID,24.9885,VALID,344,VALID,0.538281,
2009-05-26, 00:49:04,VALID,1003.5,VALID,0,VALID,90.4404,VALID,0,VALID,24.969,VALID,344,VALID,0.571875,
2009-05-26, 00:50:04,VALID,1003.5,VALID,0,VALID,90.6158,VALID,0,VALID,24.93,VALID,345,VALID,0.545313,
2009-05-26, 00:51:04,VALID,1003.49,VALID,0,VALID,90.7608,VALID,0,VALID,24.8503,VALID,345,VALID,0.564453,
2009-05-26, 00:52:04,VALID,1003.47,VALID,0,VALID,91.0736,VALID,0,VALID,24.8522,VALID,350,VALID,0.801562,
2009-05-26, 00:53:04,VALID,1003.44,VALID,0,VALID,91.4092,VALID,0,VALID,24.8522,VALID,346,VALID,0.603906,
2009-05-26, 00:54:04,VALID,1003.44,VALID,0,VALID,91.6,VALID,0,VALID,24.8522,VALID,346,VALID,0.542969,
2009-05-26, 00:55:04,VALID,1003.44,VALID,0,VALID,91.6381,VALID,0,VALID,24.8522,VALID,349,VALID,0.420312,
2009-05-26, 00:56:04,VALID,1003.41,VALID,0,VALID,91.7525,VALID,0,VALID,24.8716,VALID,349,VALID,0.414453,
2009-05-26, 00:57:04,VALID,1003.39,VALID,0,VALID,91.7678,VALID,0,VALID,24.8716,VALID,348,VALID,0.360156,
2009-05-26, 00:58:04,VALID,1003.38,VALID,0,VALID,91.7144,VALID,0,VALID,24.8911,VALID,344,VALID,0.362891,
2009-05-26, 00:59:04,VALID,1003.38,VALID,0,VALID,91.8822,VALID,0,VALID,24.9106,VALID,344,VALID,0.446875,
2009-05-26, 01:00:04,VALID,1003.37,VALID,0,VALID,91.7831,VALID,0,VALID,24.93,VALID,344,VALID,0.265234,
2009-05-26, 01:01:04,VALID,1003.36,VALID,0,VALID,91.8746,VALID,0,VALID,24.9495,VALID,344,VALID,0.225,
2009-05-26, 01:02:04,VALID,1003.33,VALID,0,VALID,91.9356,VALID,0,VALID,25.0098,VALID,344,VALID,0.176953,
2009-05-26, 01:03:04,VALID,1003.36,VALID,0,VALID,91.7983,VALID,0,VALID,24.9885,VALID,344,VALID,0.306641,
2009-05-26, 01:04:04,VALID,1003.34,VALID,0,VALID,91.7754,VALID,0,VALID,25.0488,VALID,344,VALID,0.3,
2009-05-26, 01:05:04,VALID,1003.33,VALID,0,VALID,91.6991,VALID,0,VALID,25.0469,VALID,344,VALID,0.26875,
2009-05-26, 01:06:04,VALID,1003.3,VALID,0,VALID,91.6076,VALID,0,VALID,25.0469,VALID,344,VALID,0.227344,
2009-05-26, 01:07:04,VALID,1003.3,VALID,0,VALID,91.5847,VALID,0,VALID,25.0469,VALID,344,VALID,0.323828,
2009-05-26, 01:08:04,VALID,1003.26,VALID,0,VALID,91.4932,VALID,0,VALID,25.0469,VALID,347,VALID,0.319531,
2009-05-26, 01:09:04,VALID,1003.27,VALID,0,VALID,91.4932,VALID,0,VALID,25.0274,VALID,348,VALID,0.107422,
2009-05-26, 01:10:04,VALID,1003.24,VALID,0,VALID,91.5847,VALID,0,VALID,25.0274,VALID,349,VALID,0.103125,
2009-05-26, 01:11:04,VALID,1003.2,VALID,0,VALID,92.0806,VALID,0,VALID,25.1442,VALID,36,VALID,0.785937,
2009-05-26, 01:12:04,VALID,1003.19,VALID,0,VALID,91.8517,VALID,0.100563,VALID,25.2221,VALID,43,VALID,0.374609,
2009-05-26, 01:13:04,VALID,1003.17,VALID,0,VALID,91.7373,VALID,0,VALID,25.2397,VALID,39,VALID,0.633984,
2009-05-26, 01:14:04,VALID,1003.14,VALID,0,VALID,91.6457,VALID,0.100563,VALID,25.2962,VALID,9,VALID,0.971094,
2009-05-26, 01:15:04,VALID,1003.12,VALID,0,VALID,91.5466,VALID,0,VALID,25.376,VALID,43,VALID,0.722656,
2009-05-26, 01:16:04,VALID,1003.1,VALID,0,VALID,91.3177,VALID,0,VALID,25.4734,VALID,36,VALID,0.788281,
2009-05-26, 01:17:04,VALID,1003.07,VALID,0,VALID,90.8523,VALID,0,VALID,25.5318,VALID,25,VALID,0.182031,
2009-05-26, 01:18:04,VALID,1003.06,VALID,0,VALID,90.7074,VALID,0,VALID,25.5921,VALID,22,VALID,0.65,
2009-05-26, 01:19:04,VALID,1003.07,VALID,0,VALID,90.3717,VALID,0,VALID,25.6311,VALID,22,VALID,0.441016,
2009-05-26, 01:20:04,VALID,1003.03,VALID,0,VALID,90.2115,VALID,0,VALID,25.6097,VALID,23,VALID,0.423438,
2009-05-26, 01:21:04,VALID,1003.04,VALID,0,VALID,90.1047,VALID,0,VALID,25.6486,VALID,23,VALID,0.349219,
2009-05-26, 01:22:04,VALID,1003.04,VALID,0,VALID,90.0208,VALID,0,VALID,25.6681,VALID,41,VALID,0.565625,
2009-05-26, 01:23:04,VALID,1003.04,VALID,0,VALID,89.8148,VALID,0,VALID,25.6681,VALID,36,VALID,0.364844,
2009-05-26, 01:24:04,VALID,1003.03,VALID,0,VALID,89.708,VALID,0,VALID,25.6876,VALID,38,VALID,0.309766,
2009-05-26, 01:25:04,VALID,1002.98,VALID,0,VALID,89.853,VALID,0,VALID,25.6681,VALID,349,VALID,0.519531,
2009-05-26, 01:26:04,VALID,1002.97,VALID,0,VALID,89.7538,VALID,0,VALID,25.6681,VALID,349,VALID,0.243359,
2009-05-26, 01:27:04,VALID,1002.93,VALID,0,VALID,89.7538,VALID,0.100563,VALID,25.6876,VALID,349,VALID,0.0355469,
2009-05-26, 01:28:04,VALID,1002.92,VALID,0,VALID,89.6775,VALID,0,VALID,25.6876,VALID,350,VALID,0.405078,
2009-05-26, 01:29:04,VALID,1002.88,VALID,0,VALID,89.5936,VALID,0,VALID,25.6895,VALID,350,VALID,0.19375,
2009-05-26, 01:30:04,VALID,1002.86,VALID,0,VALID,89.5554,VALID,0,VALID,25.6506,VALID,350,VALID,0.208203,
2009-05-26, 01:31:04,VALID,1002.87,VALID,0,VALID,89.5097,VALID,0,VALID,25.6506,VALID,350,VALID,0.193359,
2009-05-26, 01:32:04,VALID,1002.82,VALID,0,VALID,89.5631,VALID,0,VALID,25.6311,VALID,350,VALID,0.2875,
2009-05-26, 01:33:04,VALID,1002.81,VALID,0,VALID,89.5707,VALID,0,VALID,25.6116,VALID,350,VALID,0.0777344,
2009-05-26, 01:34:04,VALID,1002.82,VALID,0,VALID,89.5173,VALID,0.100563,VALID,25.5921,VALID,350,VALID,0.171875,
2009-05-26, 01:35:04,VALID,1002.81,VALID,0,VALID,89.5936,VALID,0,VALID,25.5921,VALID,350,VALID,0.151562,
2009-05-26, 01:36:04,VALID,1002.81,VALID,0,VALID,89.708,VALID,0,VALID,25.5921,VALID,342,VALID,0.467969,
2009-05-26, 01:37:04,VALID,1002.81,VALID,0,VALID,89.6317,VALID,0,VALID,25.5707,VALID,348,VALID,0.377734,
2009-05-26, 01:38:04,VALID,1002.8,VALID,0,VALID,89.5707,VALID,0,VALID,25.6116,VALID,3,VALID,0.305078,
2009-05-26, 01:39:04,VALID,1002.81,VALID,0,VALID,89.5402,VALID,0.100563,VALID,25.5921,VALID,13,VALID,0.435547,
2009-05-26, 01:40:04,VALID,1002.79,VALID,0,VALID,89.5325,VALID,0,VALID,25.5707,VALID,50,VALID,0.188281,
2009-05-26, 01:41:04,VALID,1002.81,VALID,0,VALID,89.5325,VALID,0,VALID,25.5902,VALID,47,VALID,0.303516,
2009-05-26, 01:42:04,VALID,1002.77,VALID,0,VALID,89.6088,VALID,0,VALID,25.5921,VALID,23,VALID,0.295312,
2009-05-26, 01:43:04,VALID,1002.76,VALID,0,VALID,89.5478,VALID,0,VALID,25.6116,VALID,23,VALID,0.388672,
2009-05-26, 01:44:04,VALID,1002.74,VALID,0,VALID,89.5402,VALID,0,VALID,25.6097,VALID,17,VALID,0.569531,
2009-05-26, 01:45:04,VALID,1002.77,VALID,0,VALID,89.5097,VALID,0,VALID,25.6292,VALID,360,VALID,0.375391,
2009-05-26, 01:46:04,VALID,1002.76,VALID,0,VALID,89.2884,VALID,0,VALID,25.6486,VALID,358,VALID,0.273438,
2009-05-26, 01:47:04,VALID,1002.75,VALID,0,VALID,89.1435,VALID,0.100563,VALID,25.7285,VALID,348,VALID,0.446484,
2009-05-26, 01:48:04,VALID,1002.76,VALID,0,VALID,88.7773,VALID,0,VALID,25.7071,VALID,348,VALID,0.187109,
2009-05-26, 01:49:04,VALID,1002.76,VALID,0,VALID,88.6552,VALID,0,VALID,25.709,VALID,348,VALID,0.171094,
2009-05-26, 01:50:05,VALID,1002.75,VALID,0,VALID,88.701,VALID,0,VALID,25.6895,VALID,348,VALID,0.116797,
2009-05-26, 01:51:05,VALID,1002.74,VALID,0,VALID,88.7925,VALID,0,VALID,25.6486,VALID,338,VALID,0.267969,
2009-05-26, 01:52:04,VALID,1002.72,VALID,0,VALID,88.8383,VALID,0,VALID,25.6097,VALID,338,VALID,0,
2009-05-26, 01:53:05,VALID,1002.67,VALID,0,VALID,88.9604,VALID,0,VALID,25.5902,VALID,338,VALID,0.0441406,
2009-05-26, 01:54:05,VALID,1002.66,VALID,0,VALID,89.0138,VALID,0,VALID,25.5727,VALID,338,VALID,0.197266,
2009-05-26, 01:55:05,VALID,1002.63,VALID,0,VALID,89.174,VALID,0,VALID,25.5142,VALID,338,VALID,0.309766,
2009-05-26, 01:56:05,VALID,1002.63,VALID,0,VALID,89.3571,VALID,0,VALID,25.4753,VALID,338,VALID,0.210547,
2009-05-26, 01:57:05,VALID,1002.64,VALID,0,VALID,89.4715,VALID,0,VALID,25.4169,VALID,338,VALID,0.356641,
2009-05-26, 01:58:05,VALID,1002.64,VALID,0,VALID,89.5936,VALID,0.100563,VALID,25.337,VALID,338,VALID,0.325391,
2009-05-26, 01:59:05,VALID,1002.65,VALID,0,VALID,89.8377,VALID,0,VALID,25.2592,VALID,338,VALID,0.401563,
2009-05-26, 02:00:05,VALID,1002.66,VALID,0,VALID,90.1276,VALID,0,VALID,25.2007,VALID,338,VALID,0.222656,
2009-05-26, 02:01:05,VALID,1002.69,VALID,0,VALID,90.4327,VALID,0.100563,VALID,25.1832,VALID,338,VALID,0.199609,
2009-05-26, 02:02:05,VALID,1002.7,VALID,0,VALID,90.7532,VALID,0,VALID,25.1229,VALID,338,VALID,0.00195313,
2009-05-26, 02:03:05,VALID,1002.72,VALID,0,VALID,90.9973,VALID,0,VALID,25.0839,VALID,338,VALID,0.170312,
2009-05-26, 02:04:05,VALID,1002.73,VALID,0,VALID,91.1041,VALID,0,VALID,25.0644,VALID,338,VALID,0.0820313,
2009-05-26, 02:05:05,VALID,1002.73,VALID,0,VALID,91.2262,VALID,0,VALID,25.0663,VALID,338,VALID,0.05625,
2009-05-26, 02:06:05,VALID,1002.73,VALID,0,VALID,91.2643,VALID,0,VALID,25.0469,VALID,338,VALID,0.296875,
2009-05-26, 02:07:05,VALID,1002.74,VALID,0,VALID,91.3711,VALID,0,VALID,25.006,VALID,338,VALID,0.245312,
2009-05-26, 02:08:05,VALID,1002.75,VALID,0,VALID,91.5008,VALID,0,VALID,24.9866,VALID,338,VALID,0.190625,
2009-05-26, 02:09:05,VALID,1002.74,VALID,0,VALID,91.5313,VALID,0,VALID,24.9671,VALID,338,VALID,0,
2009-05-26, 02:10:05,VALID,1002.78,VALID,0,VALID,91.6381,VALID,0,VALID,24.9476,VALID,338,VALID,0.00273437,
2009-05-26, 02:11:05,VALID,1002.78,VALID,0,VALID,91.6915,VALID,0,VALID,24.9476,VALID,338,VALID,0.141797,
2009-05-26, 02:12:05,VALID,1002.8,VALID,0,VALID,91.6991,VALID,0,VALID,24.9087,VALID,338,VALID,0.167969,
2009-05-26, 02:13:05,VALID,1002.79,VALID,0,VALID,91.6534,VALID,0,VALID,24.8697,VALID,338,VALID,0.015625,
2009-05-26, 02:14:05,VALID,1002.76,VALID,0,VALID,91.7907,VALID,0,VALID,24.8716,VALID,338,VALID,0.182422,
2009-05-26, 02:15:05,VALID,1002.8,VALID,0,VALID,91.9433,VALID,0,VALID,24.8716,VALID,338,VALID,0.197266,
2009-05-26, 02:16:05,VALID,1002.79,VALID,0,VALID,91.9662,VALID,0,VALID,24.8522,VALID,338,VALID,0.00742187,
2009-05-26, 02:17:05,VALID,1002.78,VALID,0,VALID,91.9814,VALID,0,VALID,24.8522,VALID,338,VALID,0,
2009-05-26, 02:18:05,VALID,1002.8,VALID,0,VALID,91.9967,VALID,0,VALID,24.8327,VALID,338,VALID,0,
2009-05-26, 02:19:05,VALID,1002.8,VALID,0,VALID,92.0043,VALID,0,VALID,24.7919,VALID,338,VALID,0,
2009-05-26, 02:20:05,VALID,1002.79,VALID,0,VALID,92.0806,VALID,0,VALID,24.7919,VALID,338,VALID,0.184375,
2009-05-26, 02:21:05,VALID,1002.81,VALID,0,VALID,92.1416,VALID,0,VALID,24.7937,VALID,338,VALID,0.128125,
2009-05-26, 02:22:05,VALID,1002.81,VALID,0,VALID,92.1721,VALID,0,VALID,24.7724,VALID,338,VALID,0.309375,
2009-05-26, 02:23:05,VALID,1002.8,VALID,0,VALID,92.073,VALID,0,VALID,24.714,VALID,338,VALID,0.325391,
2009-05-26, 02:24:05,VALID,1002.82,VALID,0,VALID,92.1264,VALID,0,VALID,24.6556,VALID,338,VALID,0.352344,
2009-05-26, 02:25:05,VALID,1002.8,VALID,0,VALID,92.2332,VALID,0,VALID,24.6361,VALID,338,VALID,0.331641,
2009-05-26, 02:26:05,VALID,1002.83,VALID,0,VALID,92.3705,VALID,0,VALID,24.5972,VALID,338,VALID,0.307031,
2009-05-26, 02:27:05,VALID,1002.82,VALID,0,VALID,92.4773,VALID,0,VALID,24.5777,VALID,338,VALID,0.205859,
2009-05-26, 02:28:05,VALID,1002.84,VALID,0,VALID,92.6375,VALID,0.100563,VALID,24.5582,VALID,338,VALID,0.253125,
2009-05-26, 02:29:05,VALID,1002.84,VALID,0,VALID,92.729,VALID,0,VALID,24.5388,VALID,338,VALID,0.340234,
2009-05-26, 02:30:05,VALID,1002.83,VALID,0,VALID,92.874,VALID,0,VALID,24.5193,VALID,338,VALID,0.229687,
2009-05-26, 02:31:05,VALID,1002.82,VALID,0,VALID,92.8053,VALID,0,VALID,24.5017,VALID,338,VALID,0,
2009-05-26, 02:32:05,VALID,1002.83,VALID,0,VALID,92.8206,VALID,0,VALID,24.422,VALID,338,VALID,0,
2009-05-26, 02:33:05,VALID,1002.82,VALID,0,VALID,92.9579,VALID,0.100563,VALID,24.4025,VALID,338,VALID,0,
2009-05-26, 02:34:05,VALID,1002.79,VALID,0,VALID,92.935,VALID,0,VALID,24.3636,VALID,338,VALID,0,
2009-05-26, 02:35:05,VALID,1002.76,VALID,0,VALID,93.2249,VALID,0.100563,VALID,24.4025,VALID,338,VALID,0,
2009-05-26, 02:36:05,VALID,1002.74,VALID,0,VALID,93.3775,VALID,0,VALID,24.422,VALID,338,VALID,0,
2009-05-26, 02:37:05,VALID,1002.71,VALID,0,VALID,93.2554,VALID,0,VALID,24.4025,VALID,338,VALID,0,
2009-05-26, 02:38:05,VALID,1002.7,VALID,0,VALID,93.3394,VALID,0,VALID,24.383,VALID,338,VALID,0,
2009-05-26, 02:39:05,VALID,1002.67,VALID,0,VALID,93.347,VALID,0.100563,VALID,24.3636,VALID,338,VALID,0,
2009-05-26, 02:40:05,VALID,1002.65,VALID,0,VALID,93.3851,VALID,0.100563,VALID,24.3441,VALID,338,VALID,0,
2009-05-26, 02:41:05,VALID,1002.67,VALID,0,VALID,93.4767,VALID,0.100563,VALID,24.3636,VALID,338,VALID,0,
2009-05-26, 02:42:05,VALID,1002.66,VALID,0,VALID,93.5606,VALID,0,VALID,24.3441,VALID,338,VALID,0,
2009-05-26, 02:43:05,VALID,1002.69,VALID,0,VALID,93.7132,VALID,0,VALID,24.383,VALID,338,VALID,0,
2009-05-26, 02:44:05,VALID,1002.66,VALID,0,VALID,93.8123,VALID,0.100563,VALID,24.4025,VALID,338,VALID,0,
2009-05-26, 02:45:05,VALID,1002.7,VALID,0,VALID,93.8734,VALID,0,VALID,24.422,VALID,338,VALID,0.396484,
2009-05-26, 02:46:05,VALID,1002.68,VALID,0,VALID,93.9497,VALID,0.100563,VALID,24.4201,VALID,338,VALID,0.220313,
2009-05-26, 02:47:05,VALID,1002.68,VALID,0,VALID,93.9191,VALID,0.100563,VALID,24.4628,VALID,338,VALID,0,
2009-05-26, 02:48:05,VALID,1002.71,VALID,0,VALID,93.8505,VALID,0,VALID,24.4414,VALID,338,VALID,0,
2009-05-26, 02:49:05,VALID,1002.72,VALID,0,VALID,93.8505,VALID,0,VALID,24.4006,VALID,338,VALID,0.0695312,
2009-05-26, 02:50:05,VALID,1002.74,VALID,0,VALID,93.8886,VALID,0.100563,VALID,24.422,VALID,338,VALID,0.00273437,
2009-05-26, 02:51:05,VALID,1002.77,VALID,0,VALID,93.9115,VALID,0.100563,VALID,24.4414,VALID,338,VALID,0,
2009-05-26, 02:52:05,VALID,1002.79,VALID,0,VALID,93.942,VALID,0,VALID,24.4414,VALID,338,VALID,0,
2009-05-26, 02:53:05,VALID,1002.81,VALID,0,VALID,93.942,VALID,0,VALID,24.4822,VALID,338,VALID,0.0851562,
2009-05-26, 02:54:05,VALID,1002.83,VALID,0,VALID,93.9725,VALID,0.100563,VALID,24.4609,VALID,338,VALID,0,
2009-05-26, 02:55:05,VALID,1002.83,VALID,0,VALID,93.9649,VALID,0,VALID,24.4609,VALID,338,VALID,0,
2009-05-26, 02:56:05,VALID,1002.88,VALID,0,VALID,94.0031,VALID,0,VALID,24.4804,VALID,338,VALID,0,
2009-05-26, 02:57:05,VALID,1002.89,VALID,0,VALID,93.9649,VALID,0.100563,VALID,24.4609,VALID,338,VALID,0,
2009-05-26, 02:58:05,VALID,1002.91,VALID,0,VALID,93.8886,VALID,0,VALID,24.4609,VALID,338,VALID,0,
2009-05-26, 02:59:05,VALID,1002.92,VALID,0,VALID,93.82,VALID,0,VALID,24.422,VALID,338,VALID,0,
2009-05-26, 03:00:05,VALID,1002.9,VALID,0,VALID,93.8505,VALID,0.100563,VALID,24.4433,VALID,338,VALID,0,
2009-05-26, 03:01:05,VALID,1002.94,VALID,0,VALID,93.82,VALID,0,VALID,24.383,VALID,338,VALID,0,
2009-05-26, 03:02:05,VALID,1002.91,VALID,0,VALID,93.8429,VALID,0.100563,VALID,24.383,VALID,338,VALID,0,
2009-05-26, 03:03:05,VALID,1002.92,VALID,0,VALID,93.8429,VALID,0,VALID,24.3636,VALID,338,VALID,0,
2009-05-26, 03:04:05,VALID,1002.94,VALID,0,VALID,93.8505,VALID,0,VALID,24.3654,VALID,338,VALID,0,
2009-05-26, 03:05:05,VALID,1002.91,VALID,0,VALID,93.8581,VALID,0,VALID,24.3246,VALID,338,VALID,0,
2009-05-26, 03:06:05,VALID,1002.91,VALID,0,VALID,93.8123,VALID,0.100563,VALID,24.3052,VALID,338,VALID,0,
2009-05-26, 03:07:05,VALID,1002.86,VALID,0,VALID,93.8352,VALID,0,VALID,24.2662,VALID,338,VALID,0,
2009-05-26, 03:08:05,VALID,1002.86,VALID,0,VALID,93.8429,VALID,0.100563,VALID,24.2468,VALID,338,VALID,0,
2009-05-26, 03:09:05,VALID,1002.84,VALID,0,VALID,93.881,VALID,0,VALID,24.2273,VALID,338,VALID,0.297266,
2009-05-26, 03:10:05,VALID,1002.82,VALID,0,VALID,93.942,VALID,0.100563,VALID,24.2273,VALID,338,VALID,0.336328,
2009-05-26, 03:11:05,VALID,1002.81,VALID,0,VALID,94.0412,VALID,0,VALID,24.2468,VALID,338,VALID,0.359766,
2009-05-26, 03:12:05,VALID,1002.78,VALID,0,VALID,93.8963,VALID,0.100563,VALID,24.1884,VALID,338,VALID,0.474219,
2009-05-26, 03:13:05,VALID,1002.77,VALID,0,VALID,93.9039,VALID,0.100563,VALID,24.1689,VALID,338,VALID,0.393359,
2009-05-26, 03:14:05,VALID,1002.77,VALID,0,VALID,93.9649,VALID,0.100563,VALID,24.1281,VALID,338,VALID,0.293359,
2009-05-26, 03:15:05,VALID,1002.78,VALID,0,VALID,93.9725,VALID,0.100563,VALID,24.1494,VALID,338,VALID,0.323047,
2009-05-26, 03:16:05,VALID,1002.8,VALID,0,VALID,93.9878,VALID,0,VALID,24.1105,VALID,338,VALID,0.344141,
2009-05-26, 03:17:05,VALID,1002.78,VALID,0,VALID,94.0031,VALID,0.100563,VALID,24.0892,VALID,338,VALID,0.215234,
2009-05-26, 03:18:05,VALID,1002.79,VALID,0,VALID,94.0565,VALID,0.100563,VALID,24.1105,VALID,338,VALID,0.184375,
2009-05-26, 03:19:05,VALID,1002.83,VALID,0,VALID,94.0641,VALID,0.100563,VALID,24.0892,VALID,338,VALID,0.0792969,
2009-05-26, 03:20:05,VALID,1002.81,VALID,0,VALID,94.0259,VALID,0.100563,VALID,24.0503,VALID,338,VALID,0.259766,
2009-05-26, 03:21:05,VALID,1002.81,VALID,0,VALID,94.0031,VALID,0.100563,VALID,24.0326,VALID,338,VALID,0.345313,
2009-05-26, 03:22:05,VALID,1002.82,VALID,0,VALID,94.0336,VALID,0.100563,VALID,23.9919,VALID,338,VALID,0.366016,
2009-05-26, 03:23:05,VALID,1002.88,VALID,0,VALID,94.1404,VALID,0.100563,VALID,24.0132,VALID,338,VALID,0.357812,
2009-05-26, 03:24:05,VALID,1002.88,VALID,0,VALID,94.1709,VALID,0.100563,VALID,24.0326,VALID,338,VALID,0.334375,
2009-05-26, 03:25:05,VALID,1002.9,VALID,0,VALID,94.2853,VALID,0.100563,VALID,24.091,VALID,338,VALID,0.323047,
2009-05-26, 03:26:05,VALID,1002.93,VALID,0,VALID,94.2548,VALID,0.100563,VALID,24.091,VALID,338,VALID,0.289844,
2009-05-26, 03:27:05,VALID,1002.93,VALID,0,VALID,94.2548,VALID,0,VALID,24.0734,VALID,338,VALID,0.00234375,
2009-05-26, 03:28:05,VALID,1002.98,VALID,0,VALID,94.3158,VALID,0,VALID,24.0734,VALID,338,VALID,0,
2009-05-26, 03:29:05,VALID,1002.99,VALID,0,VALID,94.3235,VALID,0,VALID,24.0716,VALID,338,VALID,0,
2009-05-26, 03:30:05,VALID,1002.99,VALID,0,VALID,94.3387,VALID,0,VALID,24.0929,VALID,338,VALID,0,
2009-05-26, 03:31:05,VALID,1002.97,VALID,0,VALID,94.3311,VALID,0,VALID,24.0929,VALID,338,VALID,0,
2009-05-26, 03:32:05,VALID,1002.99,VALID,0,VALID,94.3235,VALID,0,VALID,24.0947,VALID,338,VALID,0,
2009-05-26, 03:33:05,VALID,1002.97,VALID,0,VALID,94.3235,VALID,0,VALID,24.0521,VALID,338,VALID,0,
2009-05-26, 03:34:05,VALID,1002.98,VALID,0,VALID,94.354,VALID,0,VALID,24.0734,VALID,338,VALID,0,
2009-05-26, 03:35:05,VALID,1002.98,VALID,0,VALID,94.3692,VALID,0,VALID,24.0734,VALID,338,VALID,0,
2009-05-26, 03:36:05,VALID,1002.97,VALID,0,VALID,94.3998,VALID,0,VALID,24.0929,VALID,338,VALID,0,
2009-05-26, 03:37:05,VALID,1002.99,VALID,0,VALID,94.4455,VALID,0,VALID,24.0929,VALID,338,VALID,0,
2009-05-26, 03:38:05,VALID,1002.99,VALID,0,VALID,94.4074,VALID,0,VALID,24.0929,VALID,338,VALID,0,
2009-05-26, 03:39:05,VALID,1003,VALID,0,VALID,94.3692,VALID,0,VALID,24.0539,VALID,338,VALID,0,
2009-05-26, 03:40:05,VALID,1003.02,VALID,0,VALID,94.3769,VALID,0,VALID,24.0326,VALID,338,VALID,0,
2009-05-26, 03:41:05,VALID,1003,VALID,0,VALID,94.3692,VALID,0,VALID,24.0132,VALID,338,VALID,0,
2009-05-26, 03:42:05,VALID,1003.02,VALID,0,VALID,94.3692,VALID,0,VALID,24.015,VALID,338,VALID,0,
2009-05-26, 03:43:05,VALID,1003.02,VALID,0,VALID,94.3235,VALID,0,VALID,23.9955,VALID,338,VALID,0,
2009-05-26, 03:44:05,VALID,1002.99,VALID,0,VALID,94.3158,VALID,0,VALID,23.9761,VALID,338,VALID,0,
2009-05-26, 03:45:05,VALID,1002.98,VALID,0,VALID,94.4379,VALID,0,VALID,24.015,VALID,338,VALID,0,